Regional Weather Roundup
Issued by NWS

Home | Current Version | Previous Version | Graphics & Text | Print | Product List | Glossary On
Versions: 1 2 3 4 5 6 7 8 9 10 11 12 13 14 15 16 17 18 19 20 21 22 23 24 25 26 27 28 29 30 31 32 33 34 35 36 37 38 39 40 41 42 43 44 45 46 47 48 49 50
000
ASUS43 KLSX 270207
RWRMO

WEATHER SUMMARY FOR MISSOURI
NATIONAL WEATHER SERVICE SPRINGFIELD MO
900 PM CDT TUE JUL 26 2016

NOTE: "FAIR" INDICATES FEW OR NO CLOUDS BELOW 12,000 FEET WITH NO
       SIGNIFICANT WEATHER AND/OR OBSTRUCTIONS TO VISIBILITY.
       CURRENT SKY AND/OR WEATHER CONDITIONS ARE NOT AVAILABLE FOR
       CHILLICOTHE AND FARMINGTON.

MOZ001>031-035>038-043-044-053-054-270300-
...NORTHERN AND WESTERN MISSOURI...

CITY           SKY/WX    TMP DP  RH WIND       PRES   REMARKS
KANSAS CTY INT PTCLDY    81  66  60 E8        30.00F
KANSAS C DTWN  CLEAR     81  67  62 E6        29.98F
LEE`S SUMMIT   CLOUDY    80  68  66 E5        30.01S
ST JOSEPH      CLEAR     80  66  62 SE7       30.00S
CHILLICOTHE      N/A     76  70  82 CALM      30.01S
KIRKSVILLE     CLEAR     76  66  71 CALM      30.02F

$$
MOZ066>068-077>081-088>096-101>105-270300-
...SOUTHWEST MISSOURI...

CITY           SKY/WX    TMP DP  RH WIND       PRES   REMARKS
SPRINGFIELD    CLOUDY    75  72  90 S3        29.99S
JOPLIN         PTCLDY    74  73  97 NE3       29.98F
BRANSON        MOCLDY    73  73 100 CALM      30.01F FOG

$$
MOZ032>034-039>042-045>050-055>058-069>072-270300-
...CENTRAL MISSOURI...

CITY           SKY/WX    TMP DP  RH WIND       PRES   REMARKS
COLUMBIA       CLOUDY    78  73  84 NE5       30.00R
JEFFERSON CITY CLOUDY    77  73  87 CALM      29.98R
ROLLA          CLOUDY    75  72  90 CALM      29.99R
SEDALIA        CLOUDY    79  71  76 NE3       30.00S
WHITEMAN AFB   PTCLDY    76  75  95 NE3       29.98S
OSAGE BEACH    MOCLDY    76  73  91 CALM      30.00R

$$
MOZ051-052-059>065-270300-
...EAST CENTRAL MISSOURI...

CITY           SKY/WX    TMP DP  RH WIND       PRES   REMARKS
ST LOUIS INTL  MOCLDY    81  76  84 N3        29.99R
SPIRIT OF STL  CLOUDY    78  75  90 CALM      29.97R
ST CHARLES     MOCLDY    79  75  87 E6        29.97S

$$
MOZ072>076-082>087-097>100-106>115-270300-
...SOUTH CENTRAL AND SOUTHEAST MISSOURI...

CITY           SKY/WX    TMP DP  RH WIND       PRES   REMARKS
CAPE GIRARDEAU CLOUDY    75  74  96 SE5       29.98R
FARMINGTON     CLOUDY    72  72 100 CALM      30.01R
POPLAR BLUFF   CLOUDY    76  72  87 E3        29.98R
WEST PLAINS    CLOUDY    75  71  87 CALM      30.05R

$$


USA.gov is the U.S. government's official web portal to all federal, state and local government web resources and services.